EW8308 Weather Reports


time (UTC)temp
F
wind
direction
speed
knots
gust
knots
rain 1hr
in
rain 24hr
in
rain mn
in
humidity
%
barometer
mb
20260503050628 56 250 3.5 3.5 0.00 0.00 0.00 55 1014.4
20260503050127 56 249 2.6 3.5 0.00 0.00 0.00 55 1014.3
20260503045626 57 249 2.6 3.5 0.00 0.00 0.00 55 1014.4
20260503045124 56 250 2.6 3.5 0.00 0.00 0.00 55 1014.3
20260503044623 56 250 2.6 3.5 0.00 0.00 0.00 57 1014.3
20260503044122 56 250 2.6 3.5 0.00 0.00 0.00 57 1014.3
20260503043622 57 250 1.7 2.6 0.00 0.00 0.00 57 1014.3
20260503043120 56 250 0.9 2.6 0.00 0.00 0.00 57 1014.3
20260503042620 56 250 1.7 3.5 0.00 0.00 0.00 60 1014.2
20260503041119 58 249 3.5 3.5 0.00 0.00 0.00 58 1014.1
20260503040119 59 250 2.6 3.5 0.00 0.00 0.00 56 1014.1
20260503035620 59 250 2.6 3.5 0.00 0.00 0.00 56 1014.1
20260503034618 60 250 2.6 3.5 0.00 0.00 0.00 56 1014.0
20260503034117 61 250 3.5 5.2 0.00 0.00 0.00 55 1014.0
20260503033616 61 250 3.5 5.2 0.00 0.00 0.00 54 1013.9
20260503032117 61 250 3.5 3.5 0.00 0.00 0.00 58 1013.6
20260503031615 62 250 2.6 3.5 0.00 0.00 0.00 55 1013.6
20260503025116 65 249 2.6 4.3 0.00 0.00 0.00 49 1013.5
20260503024613 66 250 2.6 2.6 0.00 0.00 0.00 48 1013.5
20260503024113 67 250 2.6 2.6 0.00 0.00 0.00 47 1013.5
20260503023612 67 250 2.6 3.5 0.00 0.00 0.00 49 1013.5
20260503023113 68 250 2.6 3.5 0.00 0.00 0.00 45 1013.4
20260503022611 69 249 1.7 3.5 0.00 0.00 0.00 44 1013.4
20260503022114 69 249 1.7 2.6 0.00 0.00 0.00 44 1013.4
20260503021612 70 249 0.9 2.6 0.00 0.00 0.00 41 1013.4
20260503021111 71 250 1.7 2.6 0.00 0.00 0.00 41 1013.2
20260503020612 71 249 1.7 3.5 0.00 0.00 0.00 40 1013.1
20260503020113 72 250 2.6 3.5 0.00 0.00 0.00 38 1013.1
20260503015613 72 250 1.7 3.5 0.00 0.00 0.00 39 1013.2
20260503015112 72 250 1.7 3.5 0.00 0.00 0.00 37 1013.1
20260503014612 72 249 1.7 3.5 0.00 0.00 0.00 38 1013.1
20260503014113 73 249 1.7 3.5 0.00 0.00 0.00 38 1013.1
20260503013111 73 249 1.7 3.5 0.00 0.00 0.00 37 1013.1
20260503012113 74 250 1.7 3.5 0.00 0.00 0.00 33 1013.1
20260503011612 75 250 1.7 5.2 0.00 0.00 0.00 35 1013.2
20260503011113 75 250 3.5 7.0 0.00 0.00 0.00 33 1013.2
20260503010612 75 249 2.6 7.0 0.00 0.00 0.00 32 1013.2
20260503010113 76 250 2.6 5.2 0.00 0.00 0.00 32 1013.2
20260503005613 76 250 2.6 7.0 0.00 0.00 0.00 33 1013.2
20260503005112 76 249 2.6 7.0 0.00 0.00 0.00 32 1013.4
20260503004609 76 249 2.6 7.0 0.00 0.00 0.00 30 1013.2
20260503004111 76 250 1.7 5.2 0.00 0.00 0.00 30 1013.4
20260503003109 76 249 3.5 7.8 0.00 0.00 0.00 29 1013.5
20260503002610 76 250 2.6 7.8 0.00 0.00 0.00 30 1013.4
20260503002111 77 249 1.7 7.0 0.00 0.00 0.00 29 1013.4
20260503001608 77 249 2.6 7.0 0.00 0.00 0.00 34 1013.4
20260503001108 77 250 2.6 7.0 0.00 0.00 0.00 36 1013.4
20260503000605 77 249 1.7 6.1 0.00 0.00 0.00 30 1013.4
20260502235103 78 249 1.7 4.3 0.00 0.00 0.00 30 1013.6
20260502234603 78 249 0.9 4.3 0.00 0.00 0.00 32 1013.6
20260502233603 77 249 1.7 5.2 0.00 0.00 0.00 30 1013.6
20260502233102 77 249 1.7 5.2 0.00 0.00 0.00 29 1013.7
20260502232102 77 250 2.6 6.1 0.00 0.00 0.00 29 1013.7
20260502231601 77 249 1.7 4.3 0.00 0.00 0.00 30 1013.8
20260502231101 77 250 1.7 4.3 0.00 0.00 0.00 29 1013.9
20260502230559 77 250 0.9 3.5 0.00 0.00 0.00 30 1013.9
20260502230059 77 250 0.9 2.6 0.00 0.00 0.00 30 1013.9
20260502225559 76 250 2.6 6.1 0.00 0.00 0.00 31 1014.0
20260502224559 76 249 2.6 8.7 0.00 0.00 0.00 32 1014.1
20260502224059 76 250 4.3 8.7 0.00 0.00 0.00 36 1014.2
20260502223057 76 249 3.5 8.7 0.00 0.00 0.00 31 1014.4
20260502222557 76 250 3.5 8.7 0.00 0.00 0.00 30 1014.4
20260502222056 76 249 3.5 9.6 0.00 0.00 0.00 31 1014.4
20260502221055 76 250 2.6 7.0 0.00 0.00 0.00 31 1014.5
20260502220554 76 249 3.5 8.7 0.00 0.00 0.00 30 1014.7
20260502220054 76 250 3.5 8.7 0.00 0.00 0.00 27 1014.7
20260502215551 76 250 2.6 7.0 0.00 0.00 0.00 30 1014.8
20260502214551 76 250 4.3 9.6 0.00 0.00 0.00 28 1014.9
20260502214050 76 250 3.5 4.3 0.00 0.00 0.00 32 1014.9
20260502213551 76 250 3.5 6.1 0.00 0.00 0.00 29 1015.0
20260502213050 76 249 2.6 7.0 0.00 0.00 0.00 32 1015.0
20260502212549 76 250 1.7 5.2 0.00 0.00 0.00 32 1015.0
20260502212049 75 249 3.5 7.0 0.00 0.00 0.00 27 1015.1
20260502211049 75 249 4.3 9.6 0.00 0.00 0.00 28 1015.2
20260502210547 75 249 4.3 9.6 0.00 0.00 0.00 31 1015.2
20260502210046 75 250 2.6 7.8 0.00 0.00 0.00 31 1015.2
20260502205547 75 249 2.6 7.0 0.00 0.00 0.00 27 1015.2
20260502205045 75 250 2.6 7.0 0.00 0.00 0.00 28 1015.3
20260502204043 75 249 1.7 4.3 0.00 0.00 0.00 27 1015.4
20260502203543 75 249 1.7 5.2 0.00 0.00 0.00 30 1015.4
20260502202039 75 250 1.7 5.2 0.00 0.00 0.00 32 1015.5
20260502201538 74 250 1.7 4.3 0.00 0.00 0.00 30 1015.5
20260502201038 75 250 2.6 5.2 0.00 0.00 0.00 32 1015.6
20260502200538 75 250 1.7 5.2 0.00 0.00 0.00 29 1015.6
20260502200037 75 250 0.9 5.2 0.00 0.00 0.00 32 1015.6
20260502195536 74 249 0.9 6.1 0.00 0.00 0.00 31 1015.6
20260502195037 74 249 1.7 6.1 0.00 0.00 0.00 30 1015.7
20260502194536 74 250 2.6 5.2 0.00 0.00 0.00 31 1015.7
20260502194037 73 250 2.6 5.2 0.00 0.00 0.00 33 1015.7
20260502193537 74 250 0.9 5.2 0.00 0.00 0.00 31 1016.0
20260502193035 73 249 1.7 5.2 0.00 0.00 0.00 36 1016.0
20260502192535 73 249 1.7 5.2 0.00 0.00 0.00 33 1016.1
20260502192033 73 250 2.6 6.1 0.00 0.00 0.00 32 1016.1
20260502191031 72 250 3.5 7.8 0.00 0.00 0.00 33 1016.2
20260502190029 72 249 1.7 6.1 0.00 0.00 0.00 34 1016.2
20260502185529 72 250 1.7 5.2 0.00 0.00 0.00 34 1016.3
20260502184531 71 249 1.7 7.0 0.00 0.00 0.00 34 1016.4
20260502184030 71 250 1.7 5.2 0.00 0.00 0.00 38 1016.4
20260502183028 70 249 2.6 6.1 0.00 0.00 0.00 37 1016.5
20260502182028 70 250 1.7 4.3 0.00 0.00 0.00 40 1016.6
20260502181528 70 250 1.7 5.2 0.00 0.00 0.00 38 1016.6
20260502181028 70 249 2.6 5.2 0.00 0.00 0.00 42 1016.6
20260502180526 70 249 2.6 5.2 0.00 0.00 0.00 37 1016.6
20260502170518 66 249 0.9 4.3 0.00 0.00 0.00 41 1016.7
20260502163013 63 250 1.7 4.3 0.00 0.00 0.00 42 1016.8
20260502162013 63 250 0.9 2.6 0.00 0.00 0.00 51 1016.9
20260502161012 62 250 0.9 2.6 0.00 0.00 0.00 50 1016.9
20260502152012 58 249 0.0 0.9 0.00 0.00 0.00 60 1016.9
20260502151513 56 250 0.9 2.6 0.00 0.00 0.00 59 1016.9
20260502151013 56 250 0.9 2.6 0.00 0.00 0.00 59 1016.9
20260502150513 55 250 0.0 2.6 0.00 0.00 0.00 61 1016.9
20260502130500 46 249 0.9 3.5 0.00 0.00 0.00 74 1016.4
20260502123500 46 250 0.9 3.5 0.00 0.00 0.00 72 1016.4
20260502123000 46 250 0.9 3.5 0.00 0.00 0.00 71 1016.3
20260502121958 47 250 0.0 4.3 0.00 0.00 0.00 69 1016.4
20260502121456 47 250 0.0 1.7 0.00 0.00 0.00 70 1016.4
20260502120455 46 250 0.9 1.7 0.00 0.00 0.00 72 1016.4
20260502115456 46 249 1.7 3.5 0.00 0.00 0.00 74 1016.4
20260502114954 46 250 2.6 3.5 0.00 0.00 0.00 75 1016.4
20260502114452 45 250 2.6 3.5 0.00 0.00 0.00 76 1016.4
20260502113952 45 250 1.7 3.5 0.00 0.00 0.00 76 1016.3
20260502113452 45 250 1.7 3.5 0.00 0.00 0.00 75 1016.3
20260502112950 45 250 1.7 2.6 0.00 0.00 0.00 75 1016.2
20260502112448 45 250 1.7 2.6 0.00 0.00 0.00 75 1016.3
20260502111448 46 250 0.9 1.7 0.00 0.00 0.00 74 1016.2
20260502110446 47 250 0.0 1.7 0.00 0.00 0.00 70 1016.2
20260502105945 47 250 0.9 2.6 0.00 0.00 0.00 71 1016.1
20260502105442 46 250 0.0 2.6 0.00 0.00 0.00 71 1016.1
20260502104440 47 250 0.0 0.0 0.00 0.00 0.00 71 1016.1
20260502103940 47 250 0.0 0.0 0.00 0.00 0.00 70 1016.2
20260502103438 48 250 0.9 2.6 0.00 0.00 0.00 68 1016.2
20260502102938 47 250 0.9 2.6 0.00 0.00 0.00 69 1016.2
20260502102436 48 250 0.9 1.7 0.00 0.00 0.00 67 1016.3
20260502101934 48 250 0.9 1.7 0.00 0.00 0.00 67 1016.2
20260502101431 48 250 0.9 3.5 0.00 0.00 0.00 68 1016.3
20260502100930 48 250 0.9 3.5 0.00 0.00 0.00 68 1016.2
20260502091419 48 250 0.9 2.6 0.00 0.00 0.00 67 1016.3
20260502090919 47 250 1.7 2.6 0.00 0.00 0.00 69 1016.2
20260502090418 47 250 0.9 2.6 0.00 0.00 0.00 70 1016.3
20260502071359 52 250 0.0 1.7 0.00 0.00 0.00 59 1016.3
20260502070359 53 250 0.0 0.0 0.00 0.00 0.00 58 1016.2
20260502064356 54 250 0.0 0.9 0.00 0.00 0.00 58 1016.3
20260502063855 53 250 0.0 0.9 0.00 0.00 0.00 58 1016.3
20260502061846 54 249 0.0 0.9 0.00 0.00 0.00 58 1016.2
20260502060845 55 250 0.0 1.7 0.00 0.00 0.00 56 1016.2
20260502060345 55 250 0.0 1.7 0.00 0.00 0.00 56 1016.2
20260502055845 55 249 0.9 1.7 0.00 0.00 0.00 55 1016.2
20260502055344 55 250 0.0 1.7 0.00 0.00 0.00 55 1016.3
20260502054342 55 250 0.0 0.0 0.00 0.00 0.00 54 1016.3
20260502053840 56 250 0.0 0.0 0.00 0.00 0.00 53 1016.3
20260502053338 56 250 0.0 0.9 0.00 0.00 0.00 52 1016.3
20260502052337 56 250 2.6 4.3 0.00 0.00 0.00 53 1016.3
20260502051838 55 250 1.7 4.3 0.00 0.00 0.00 56 1016.2